[[{"header":{"parameterUnit":"m.s-1","parameterCategory":1,"la1":30.2991,"la2":30.254,"lo1":-89.0895,"lo2":-89.0444,"dy":0.0017,"dx":0.0017,"nx":28,"ny":28,"refTime":"2025-11-29T09:00:00:Z","depth":0,"parameterNumber":2,"parameterNumberName":"U-component_of_WINDS"},"data":[0,0,0,0,0,0,0,0,0,0,0,0,0,0,0,0,0,0,0,0,0,0,0,0,0,0,0,0,0,0,0,0,0,0,0,0,0,0,0,0,0,0,0,0,0,0,0,0,0,0,0,0,0,0,0,0,0,0,-1.9123,-1.9124,0,-1.9137,-1.9137,-1.9138,-1.9065,-1.9063,-1.9061,-1.9059,-1.9073,-1.9075,-1.9077,0,0,0,0,0,0,0,0,0,0,0,0,0,-1.9035,-1.9037,-1.9123,-1.9124,-1.9124,-1.9137,-1.9137,-1.9138,-1.9065,-1.9063,-1.906,-1.9058,-1.9072,-1.9075,-1.9077,0,0,0,0,0,0,0,0,0,0,0,0,0,-1.9063,-1.9037,-1.9123,-1.9089,-1.9086,-1.9137,-1.9137,-1.9138,-1.9066,-1.9063,-1.906,-1.9057,-1.9071,-1.9074,-1.9078,-1.9162,0,0,-1.9088,-1.909,0,0,0,0,0,0,0,0,-1.9062,-1.9067,-1.9094,-1.9092,-1.9089,-1.9096,-1.9111,-1.9146,-1.9067,-1.9074,-1.9059,-1.9055,-1.9083,-1.9085,-1.9095,-1.9162,-1.9163,-1.9089,-1.9091,-1.9092,-1.9093,0,0,0,0,0,0,0,-1.906,-1.9066,-1.9129,-1.9095,-1.9091,-1.9073,-1.9074,-1.9117,-1.9096,-1.9073,-1.9068,-1.907,-1.9081,-1.9092,-1.9095,-1.9163,-1.9089,-1.9092,-1.9094,-1.9095,-1.9303,-1.9306,0,0,0,0,0,0,-1.9062,-1.9064,-1.9128,-1.9129,-1.9067,-1.9078,-1.9078,-1.9097,-1.9095,-1.9092,-1.9073,-1.9067,-1.9087,-1.9091,-1.9095,-1.9195,-1.9092,-1.9096,-1.9098,-1.9299,-1.9303,-1.9307,0,0,0,0,0,0,-1.9061,-1.9069,-1.9128,-1.9095,-1.9102,-1.9082,-1.9104,-1.9099,-1.911,-1.9095,-1.9091,-1.9088,-1.9085,-1.909,-1.9146,-1.9194,-1.9097,-1.91,-1.9295,-1.93,-1.9305,-1.9395,0,0,0,0,0,0,-1.9059,-1.9069,-1.91,-1.9097,-1.9104,-1.9179,-1.9107,-1.9101,-1.9116,-1.9108,-1.9108,-1.9105,-1.9083,-1.9141,-1.915,-1.9197,-1.9103,-1.9291,-1.9298,-1.9304,-1.9388,-1.9402,-1.9415,0,0,0,0,0,-1.9056,-1.9124,-1.9102,-1.911,-1.9143,-1.9182,-1.9186,-1.9159,-1.912,-1.9152,-1.9143,-1.9105,-1.9187,-1.9148,-1.9156,-1.9206,-1.9288,-1.9296,-1.9303,-1.9381,-1.94,-1.9415,0,0,0,0,0,0,-1.9133,-1.9123,-1.9099,-1.9168,-1.9177,-1.917,-1.9209,-1.9179,-1.9199,-1.919,-1.9156,-1.9157,-1.922,-1.9218,-1.9174,-1.9288,-1.9231,-1.9241,-1.9287,-1.9304,-1.9318,-1.9318,-1.9106,0,0,0,0,0,-1.9159,-1.9192,-1.9181,-1.9243,-1.9249,-1.9229,-1.9245,-1.9223,-1.9231,-1.9234,-1.9229,-1.9237,-1.9265,-1.9284,-1.9309,-1.9386,-1.9386,-1.9425,-1.9438,-1.945,-1.9459,-1.9503,-1.952,-1.9332,-1.9332,-1.9332,0,0,-1.9211,-1.921,-1.9232,-1.9259,-1.9263,-1.9298,-1.9232,-1.9272,-1.9298,-1.9239,-1.9293,-1.929,-1.9297,-1.9365,-1.9395,-1.9366,-1.9511,-1.946,-1.9469,-1.9472,-1.9512,-1.953,-1.9546,-1.9338,-1.9337,-1.9336,0,0,-1.9326,-1.9327,-1.938,-1.9386,-1.9394,-1.938,-1.9393,-1.9391,-1.9387,-1.944,-1.9398,-1.9428,-1.9476,-1.9484,-1.9494,-1.9613,-1.958,-1.9621,-1.9694,-1.9737,-1.9752,-1.9765,-1.981,-1.9826,-1.9631,-1.9631,-1.9631,0,-1.939,-1.9442,-1.9411,-1.9455,-1.9469,-1.9418,-1.9472,-1.9479,-1.9494,-1.9505,-1.9472,-1.9533,-1.9534,-1.9604,-1.9633,-1.9642,-1.9657,-1.9622,-1.9752,-1.9765,-1.9776,-1.9819,-1.9835,-1.9636,-1.9635,-1.9635,-1.9634,0,-1.9522,-1.9559,-1.9601,-1.9618,-1.9636,-1.9684,-1.9662,-1.9684,-1.9661,-1.9651,-1.9707,-1.9706,-1.9731,-1.9746,-1.9723,-1.9813,-1.9796,-1.9758,-1.97,-1.98,-1.984,-1.9855,-1.9644,-1.9642,-1.964,-1.9639,0,0,-1.9686,-1.9687,-1.9703,-1.9711,-1.9716,-1.9744,-1.979,-1.9815,-1.9836,-1.9847,-1.9887,-1.9929,-1.9895,-1.9907,-1.9885,-1.9922,-2.0019,-1.988,-1.9879,-1.9908,-2.0121,-2.0151,-2.0171,-1.9996,-1.9999,-2.0001,-2.0121,0,-1.98,-1.9881,-1.9855,-1.9937,-1.9971,-1.9924,-1.9965,-1.9973,-1.9965,-1.9993,-1.9983,-2.0015,-1.9966,-1.9974,-2.0008,-2.0,-2.0062,-1.9991,-2.0034,-2.0036,-2.0037,-2.0191,-2.0222,-2.0336,-2.0136,-2.0139,-2.0141,0,-1.9944,-1.9963,-2.0049,-2.005,-2.0063,-2.0101,-2.0122,-2.0149,-2.0157,-2.0149,-2.0163,-2.0134,-2.018,-2.0121,-2.0186,-2.0138,-2.0154,-2.0153,-2.0157,-2.0162,-2.0096,-2.0202,-2.0371,-2.0389,-2.0164,-2.0162,-2.0161,0,-2.0059,-2.0105,-2.0163,-2.0171,-2.0173,-2.0201,-2.0203,-2.0208,-2.0225,-2.0243,-2.0255,-2.0278,-2.0292,-2.0311,-2.0289,-2.0248,-2.0358,-2.0296,-2.0354,-2.0355,-2.0381,-2.038,-2.0557,-2.0388,-2.0387,-2.0387,-2.0387,0,-2.019,-2.0245,-2.0215,-2.0251,-2.0311,-2.0281,-2.0342,-2.0338,-2.0344,-2.0379,-2.0338,-2.0371,-2.034,-2.037,-2.0353,-2.0411,-2.0417,-2.0412,-2.0408,-2.0417,-2.0419,-2.0429,-2.0422,-2.0392,-2.0391,-2.039,-2.0389,0,-2.0329,-2.0311,-2.0371,-2.0368,-2.0369,-2.0414,-2.0412,-2.0445,-2.0434,-2.0479,-2.0488,-2.0471,-2.0505,-2.0485,-2.0519,-2.0508,-2.0584,-2.0567,-2.0582,-2.0578,-2.0638,-2.0634,-2.083,-2.0856,-2.0668,-2.0669,-2.0671,0,-2.0415,-2.0456,-2.0458,-2.0479,-2.0484,-2.0518,-2.0535,-2.0507,-2.0528,-2.0541,-2.0573,-2.0604,-2.0628,-2.0685,-2.0677,-2.0703,-2.0688,-2.0755,-2.0692,-2.0702,-2.0693,-2.0692,-2.0697,-2.0769,-2.0771,-2.0773,-2.0774,0,-2.057,-2.056,-2.0587,-2.0612,-2.0635,-2.0653,-2.0668,-2.0687,-2.0659,-2.0684,-2.072,-2.0738,-2.0774,-2.0806,-2.0829,-2.0831,-2.08,-2.0794,-2.0809,-2.0821,-2.0829,-2.0828,-2.062,-2.079,-2.0789,-2.0787,-2.0787,-2.0786,-2.0687,-2.0722,-2.073,-2.0763,-2.0771,-2.0786,-2.0818,-2.0812,-2.0841,-2.0869,-2.085,-2.0893,-2.0901,-2.0929,-2.0935,-2.0968,-2.0941,-2.0963,-2.0969,-2.0975,-2.0985,-2.0822,-2.0972,-2.0971,-2.0971,-2.0971,-2.097,0,-2.0843,-2.0845,-2.0876,-2.0898,-2.0924,-2.0891,-2.0906,-2.093,-2.0968,-2.0979,-2.1003,-2.1045,-2.1076,-2.107,-2.1099,-2.1126,-2.1113,-2.1135,-2.1134,-2.1136,-2.1006,-2.0991,-2.1146,-2.1146,-2.1146,-2.1146,-2.1146,-2.1146,-2.0927,-2.0986,-2.0977,-2.104,-2.1042,-2.1084,-2.1096,-2.111,-2.1119,-2.1167,-2.1193,-2.1189,-2.1194,-2.1222,-2.125,-2.1248,-2.1261,-2.129,-2.1282,-2.1162,-2.1144,-2.1128,-2.1114,-2.1292,-2.1293,-2.141,-2.1411,-2.1412]},{"header":{"parameterUnit":"m.s-1","parameterCategory":1,"la1":30.2991,"la2":30.254,"lo1":-89.0895,"lo2":-89.0444,"dy":0.0017,"dx":0.0017,"nx":28,"ny":28,"refTime":"2025-11-29T09:00:00:Z","depth":0,"parameterNumber":3,"parameterNumberName":"V-component_of_WINDS"},"data":[0,0,0,0,0,0,0,0,0,0,0,0,0,0,0,0,0,0,0,0,0,0,0,0,0,0,0,0,0,0,0,0,0,0,0,0,0,0,0,0,0,0,0,0,0,0,0,0,0,0,0,0,0,0,0,0,0,0,-5.3652,-5.3653,0,-5.3704,-5.3705,-5.3705,-5.3651,-5.3649,-5.3647,-5.3645,-5.3694,-5.3697,-5.37,0,0,0,0,0,0,0,0,0,0,0,0,0,-5.3503,-5.3506,-5.3652,-5.3653,-5.3654,-5.3704,-5.3705,-5.3705,-5.3652,-5.3649,-5.3647,-5.3644,-5.3693,-5.3697,-5.37,0,0,0,0,0,0,0,0,0,0,0,0,0,-5.3563,-5.3507,-5.3652,-5.3633,-5.3632,-5.3704,-5.3705,-5.3706,-5.3652,-5.3649,-5.3646,-5.3643,-5.3692,-5.3696,-5.3701,-5.3793,0,0,-5.3716,-5.3718,0,0,0,0,0,0,0,0,-5.3559,-5.3568,-5.3635,-5.3635,-5.3633,-5.3668,-5.367,-5.3735,-5.3653,-5.3644,-5.3645,-5.3642,-5.3688,-5.3693,-5.3709,-5.3795,-5.3797,-5.3716,-5.3719,-5.3721,-5.3723,0,0,0,0,0,0,0,-5.3555,-5.3566,-5.3673,-5.3636,-5.3635,-5.3621,-5.3626,-5.3682,-5.3683,-5.3645,-5.3641,-5.3648,-5.3686,-5.3704,-5.371,-5.3798,-5.3716,-5.372,-5.3723,-5.3725,-5.3963,-5.3967,0,0,0,0,0,0,-5.3554,-5.3563,-5.3671,-5.3674,-5.3588,-5.3626,-5.3632,-5.366,-5.3682,-5.3682,-5.3651,-5.3646,-5.3698,-5.3704,-5.3711,-5.3821,-5.3721,-5.3726,-5.3728,-5.396,-5.3964,-5.3968,0,0,0,0,0,0,-5.3551,-5.3564,-5.3669,-5.3618,-5.363,-5.3632,-5.3664,-5.3663,-5.3681,-5.3687,-5.3686,-5.367,-5.3695,-5.3704,-5.3774,-5.3822,-5.3728,-5.3732,-5.3956,-5.3961,-5.3966,-5.4041,0,0,0,0,0,0,-5.3547,-5.3563,-5.3599,-5.3619,-5.3633,-5.3732,-5.3667,-5.3666,-5.369,-5.3683,-5.3704,-5.3704,-5.3694,-5.3767,-5.3778,-5.3827,-5.3736,-5.3951,-5.3958,-5.3964,-5.4034,-5.4048,-5.406,0,0,0,0,0,-5.3542,-5.3617,-5.3601,-5.3615,-5.3678,-5.3735,-5.3743,-5.373,-5.3694,-5.3729,-5.3733,-5.3703,-5.3815,-5.3774,-5.3787,-5.3838,-5.3948,-5.3956,-5.3964,-5.4028,-5.4045,-5.406,0,0,0,0,0,0,-5.3601,-5.3619,-5.3602,-5.3686,-5.371,-5.3726,-5.377,-5.3749,-5.3782,-5.3774,-5.3756,-5.3761,-5.3835,-5.3843,-5.3797,-5.3928,-5.3875,-5.3886,-5.392,-5.3936,-5.3949,-5.3945,-5.374,0,0,0,0,0,-5.3624,-5.367,-5.3683,-5.3756,-5.3769,-5.3768,-5.3792,-5.3781,-5.3804,-5.3813,-5.3822,-5.3844,-5.3884,-5.391,-5.3947,-5.4035,-5.4039,-5.4076,-5.4089,-5.41,-5.4109,-5.4156,-5.4173,-5.3993,-5.3993,-5.3993,0,0,-5.3672,-5.3687,-5.3717,-5.3768,-5.3785,-5.3833,-5.3776,-5.3828,-5.3863,-5.382,-5.3887,-5.3894,-5.3918,-5.3997,-5.4032,-5.4006,-5.416,-5.4109,-5.4118,-5.4121,-5.4166,-5.4183,-5.4198,-5.3998,-5.3997,-5.3996,0,0,-5.3783,-5.38,-5.3863,-5.3882,-5.3909,-5.3908,-5.3923,-5.3943,-5.3947,-5.4014,-5.3983,-5.4023,-5.4092,-5.4111,-5.4129,-5.4249,-5.4223,-5.4261,-5.4328,-5.4375,-5.4389,-5.4402,-5.4445,-5.446,-5.4271,-5.4271,-5.4271,0,-5.3838,-5.391,-5.3897,-5.3953,-5.3976,-5.3942,-5.4005,-5.4023,-5.406,-5.4077,-5.4047,-5.4134,-5.4147,-5.4231,-5.426,-5.4276,-5.4293,-5.4259,-5.4388,-5.4401,-5.4412,-5.4453,-5.4469,-5.4275,-5.4275,-5.4274,-5.4274,0,-5.3977,-5.4027,-5.4074,-5.4114,-5.4142,-5.4201,-5.4197,-5.4227,-5.4214,-5.4215,-5.4284,-5.4299,-5.4339,-5.4358,-5.4345,-5.444,-5.4423,-5.4391,-5.4338,-5.4434,-5.4472,-5.4488,-5.4282,-5.428,-5.4279,-5.4278,0,0,-5.4125,-5.4159,-5.4176,-5.4194,-5.4222,-5.426,-5.4317,-5.4358,-5.4385,-5.4412,-5.4459,-5.4519,-5.4491,-5.4511,-5.45,-5.4541,-5.4636,-5.4504,-5.4504,-5.4528,-5.4742,-5.4765,-5.4784,-5.4619,-5.4621,-5.4624,-5.474,0,-5.4238,-5.4339,-5.4331,-5.4426,-5.4472,-5.4441,-5.4491,-5.4513,-5.4516,-5.4555,-5.4558,-5.4601,-5.456,-5.4573,-5.4612,-5.4616,-5.4678,-5.4607,-5.4661,-5.4664,-5.4657,-5.4804,-5.4829,-5.4938,-5.4754,-5.4757,-5.4759,0,-5.4382,-5.4417,-5.4518,-5.4541,-5.4559,-5.4605,-5.4642,-5.468,-5.4704,-5.4703,-5.4728,-5.471,-5.4766,-5.4712,-5.479,-5.4742,-5.4763,-5.4769,-5.4773,-5.4777,-5.4717,-5.4812,-5.4972,-5.4988,-5.4782,-5.478,-5.4779,0,-5.4482,-5.4553,-5.4623,-5.4639,-5.4667,-5.47,-5.4712,-5.4734,-5.4759,-5.4791,-5.4808,-5.4845,-5.4866,-5.4895,-5.4887,-5.4848,-5.4967,-5.4912,-5.4967,-5.4968,-5.4993,-5.4992,-5.5159,-5.5007,-5.5007,-5.5007,-5.5006,0,-5.4608,-5.4671,-5.4668,-5.4712,-5.4781,-5.477,-5.4839,-5.4847,-5.4867,-5.491,-5.4884,-5.4925,-5.4912,-5.4952,-5.4946,-5.5011,-5.5021,-5.5021,-5.5019,-5.5024,-5.5024,-5.5038,-5.503,-5.5011,-5.501,-5.5009,-5.5009,0,-5.4731,-5.4731,-5.4806,-5.4827,-5.4834,-5.4884,-5.4901,-5.4941,-5.4943,-5.4998,-5.501,-5.5013,-5.5059,-5.5054,-5.5104,-5.51,-5.5182,-5.517,-5.5174,-5.5172,-5.5228,-5.5223,-5.5409,-5.5433,-5.5266,-5.5268,-5.5269,0,-5.4812,-5.486,-5.4887,-5.4915,-5.4931,-5.4976,-5.5003,-5.4994,-5.5022,-5.5054,-5.509,-5.5134,-5.5169,-5.5243,-5.5249,-5.5287,-5.5277,-5.5339,-5.5282,-5.5286,-5.5278,-5.5275,-5.528,-5.5351,-5.5353,-5.5354,-5.5355,0,-5.4955,-5.4954,-5.4994,-5.5036,-5.5069,-5.51,-5.5129,-5.5153,-5.5146,-5.5179,-5.5227,-5.5254,-5.5307,-5.5351,-5.5388,-5.5399,-5.5376,-5.5374,-5.5388,-5.5394,-5.5395,-5.5395,-5.5205,-5.5369,-5.5368,-5.5367,-5.5366,-5.5365,-5.506,-5.5101,-5.5128,-5.5174,-5.5195,-5.5223,-5.5262,-5.527,-5.531,-5.5354,-5.5345,-5.5399,-5.5422,-5.5469,-5.5485,-5.5525,-5.5502,-5.5524,-5.5529,-5.5535,-5.5542,-5.5388,-5.5532,-5.5532,-5.5531,-5.5531,-5.5531,0,-5.5202,-5.5218,-5.5261,-5.5303,-5.5339,-5.5317,-5.5347,-5.5379,-5.5427,-5.5451,-5.5487,-5.5542,-5.5584,-5.5594,-5.5634,-5.5665,-5.5656,-5.5676,-5.5674,-5.5677,-5.556,-5.5543,-5.5683,-5.5683,-5.5683,-5.5683,-5.5683,-5.5683,-5.5281,-5.5351,-5.5353,-5.5433,-5.5447,-5.5502,-5.5521,-5.5546,-5.5566,-5.5629,-5.5665,-5.5672,-5.569,-5.5732,-5.577,-5.5771,-5.5787,-5.5812,-5.5809,-5.57,-5.5685,-5.567,-5.5654,-5.5815,-5.5815,-5.5922,-5.5923,-5.5924]}]]